Погода в Шабаце

Сербия     44°45′09″N   19°41′18″E
темп.,
°C
ветер,
м/с
пор.,
м/с
влажн.,
%
обл.,
%
осадки,
мм/ч
давл.,
гПа
погр.,
м
23 октября, сб
сб2323:00+14ю2298100 8.9 101987
02:00+13з129799 10.7 102057
05:00+12ссв61083100 2.1 1021635
08:00+11сз3477100 3.9 1024265
11:00+11з3367100 1.1 1027443
14:00+12з4466100 1.4 1027754
17:00+9зюз4582100 0.1 1027265
20:00+9з358353 0.1 1029211
24 октября, вс
вс2423:00+9з347992 0.0 1030114
02:00+7зсз35845 0.0 103197
05:00+6зсз34855 0.0 103162
08:00+6з23850 0.0 103267
11:00+11зсз22560 0.0 1033622
14:00+13ссз22410 0.0 10311333
17:00+12всв22480 0.0 103128
20:00+8в33580 0.0 103138
25 октября, пн
пн2523:00+7юв33630 0.0 103138
02:00+6вюв34680 0.0 103050
05:00+5вюв35710 0.0 102973
08:00+5вюв310735 0.0 1029239
11:00+11вюв79560 0.0 1028763
14:00+14вюв79440 0.0 10261132
17:00+12вюв712550 0.0 1025576
20:00+9вюв512630 0.0 1025319
26 октября, вт
вт2623:00+8вюв513650 0.0 1025338
02:00+7вюв511680 0.0 1025307
05:00+6вюв41070100 0.0 1024315
08:00+7вюв4871100 0.0 1024324
11:00+11юв335799 0.0 1024607
14:00+14вюв22477 0.0 1022904
17:00+12вюв235481 0.0 102259
20:00+8в2365100 0.0 102367
27 октября, ср
ср2723:00+7вюв1171100 0.0 102411
02:00+6зсз117898 0.0 102418
05:00+5зсз2281100 0.0 102427
08:00+5зсз2380100 0.0 102574
11:00+10зсз226265 0.0 1026514
14:00+12ссв2252100 0.0 1025919
17:00+11вюв115791 0.0 102510
20:00+9ссз1163100 0.0 102610